DIAMANT R/B, 2671

Orbit data source: Space-Track

DIAMANT R/B, 2671 is space debris in LEO originally from a launch on Wed, 08 Feb 1967 UTC launched from the Hamma Guira Space Track Range (HGSTR). Debris objects in space refer to the collection of defunct objects orbiting the Earth. Examples of debris include non-operational satellites, rocket bodies, and fragments generated from explosions, collisions, or faulty payload assembly.

Loading next visibility...
Identifier
2671, 1967-011B
Orbit
LEO
Country
Flag of FRFR
Related business
Manufacturer
Sud
Mission
Spacecraft
Bus & Motor
RUBIS, Unknown motor
Mass
65 kg wet, 65 kg dry
Launch date (UTC)
1967-02-08 (59 years ago)
Launch vehicle
Unknown
Launch site
Hamma Guira Space Track Range (HGSTR)
Object type
Payload
Rocket body
Debris
Shape & HBR
Cyl, 1.1 m
Radar Cross Section
1.347 m², Large (>1 m²)

Expand to show TLE details & history
Last TLE update: 11 hours ago

TLE from 11 hours ago
0 DIAMANT R/B
1 02671U 67011B   25243.23136024  .00002110  00000-0  42131-3 0  9996
2 02671  39.9471 191.1595 0337647 276.0226  80.2170 14.33176431 13899
Epoch: 2025-08-31T05:33Z
TLE epoch observation values (Epoch: 2025-08-31T05:33:09.524Z)
Latitude
0.00001°
Longitude
128.21556°
Altitude
747.514 km
Speed
7.5 km/s
True Right ascension
12h 44m 38s
True Declination
0° 00' 00"
Sunlit
Object was in daylight at epoch
Visualization orbit readout
Latitude
Unknown
Longitude
Unknown
Altitude
Unknown
Speed
Unknown
Apparent Right ascension
Unknown
Apparent Declination
Unknown
Sunlit
N/A
Visualization observer readout
Local Sidereal Time
07:49:16
Azimuth
Unknown
Elevation
Unknown
Doppler factor
Unknown
Orbital elements
Apogee altitude
1,025.3 km
Perigee altitude
541.679 km
Semi-major axis
7,161.626 km
Eccentricity
0.03376
Inclination
39.9471°
RAAN
191.1595°
Arg. of periapsis
276.0226°
True anomaly
84.05455°
Mean anomaly
80.217°
Eccentric anomaly
82.13337°
Mean motion
3.58118 °/min
Orbital period
100.53 mins
BSTAR
0.00042131
Loading maneuver chart data...
Computing Atmospheric mass density...

Documentation

Showing up to 5 results
|